| time (UTC) | temp C | wind direction | speed KPH | gust KPH | rain 1hr cm | rain 24hr cm | rain mn cm | humidity % | barometer mb |
| 20260507110103 | 1 | 253 | 0.0 | 0.0 | 0.00 | 0.71 | 0.00 | 95 | 1014.2 |
| 20260507104603 | 1 | 259 | 0.0 | 0.0 | 0.00 | 0.79 | 0.00 | 95 | 1014.0 |
| 20260507103129 | 1 | 260 | 0.0 | 0.0 | 0.00 | 0.79 | 0.00 | 95 | 1013.8 |
| 20260507101557 | 1 | 260 | 0.0 | 0.0 | 0.00 | 0.79 | 0.00 | 95 | 1013.6 |
| 20260507100108 | 1 | 260 | 0.0 | 0.0 | 0.00 | 0.79 | 0.00 | 95 | 1013.7 |
| 20260507094558 | 1 | 260 | 0.0 | 0.0 | 0.00 | 0.94 | 0.00 | 95 | 1013.4 |
| 20260507093014 | 1 | 260 | 0.0 | 0.0 | 0.00 | 0.94 | 0.00 | 95 | 1013.5 |
| 20260507091507 | 1 | 260 | 0.0 | 4.8 | 0.00 | 0.94 | 0.00 | 95 | 1013.7 |
| 20260507090006 | 1 | 260 | 0.0 | 3.2 | 0.00 | 0.94 | 0.00 | 95 | 1013.9 |
| 20260507084517 | 2 | 260 | 0.0 | 3.2 | 0.00 | 0.97 | 0.00 | 95 | 1013.7 |
| 20260507083054 | 2 | 260 | 0.0 | 4.8 | 0.00 | 0.97 | 0.00 | 95 | 1013.9 |
| 20260507081557 | 2 | 260 | 0.0 | 4.8 | 0.00 | 0.97 | 0.00 | 95 | 1013.7 |
| 20260507080055 | 2 | 260 | 1.6 | 6.4 | 0.00 | 0.97 | 0.00 | 95 | 1013.7 |
| 20260507074555 | 2 | 259 | 1.6 | 6.4 | 0.00 | 0.97 | 0.00 | 95 | 1013.8 |
| 20260507073047 | 2 | 259 | 0.0 | 4.8 | 0.00 | 0.97 | 0.00 | 94 | 1013.6 |
| 20260507071548 | 2 | 268 | 1.6 | 8.0 | 0.00 | 0.97 | 0.00 | 94 | 1013.5 |
| 20260507070100 | 2 | 271 | 1.6 | 9.7 | 0.00 | 0.97 | 0.00 | 94 | 1013.4 |
| 20260507064550 | 2 | 257 | 3.2 | 9.7 | 0.00 | 0.97 | 0.00 | 94 | 1013.6 |
| 20260507063044 | 2 | 316 | 4.8 | 16.1 | 0.00 | 0.97 | 0.00 | 94 | 1013.8 |
| 20260507061543 | 2 | 284 | 3.2 | 9.7 | 0.00 | 0.97 | 0.00 | 93 | 1013.8 |
| 20260507060040 | 3 | 248 | 1.6 | 11.3 | 0.00 | 0.97 | 0.00 | 93 | 1013.6 |
| 20260507054559 | 3 | 261 | 4.8 | 12.9 | 0.00 | 0.97 | 0.97 | 93 | 1013.6 |
| 20260507053048 | 3 | 256 | 8.0 | 14.5 | 0.00 | 0.97 | 0.97 | 92 | 1013.6 |
| 20260507051548 | 3 | 249 | 3.2 | 14.5 | 0.00 | 0.97 | 0.97 | 92 | 1013.4 |
| 20260507050047 | 3 | 285 | 3.2 | 14.5 | 0.00 | 0.97 | 0.97 | 93 | 1013.6 |
| 20260507044546 | 3 | 222 | 3.2 | 12.9 | 0.00 | 0.97 | 0.97 | 92 | 1013.7 |
| 20260507043031 | 3 | 264 | 6.4 | 19.3 | 0.00 | 0.97 | 0.97 | 93 | 1013.6 |
| 20260507041529 | 3 | 247 | 8.0 | 17.7 | 0.00 | 0.97 | 0.97 | 94 | 1013.3 |
| 20260507040031 | 3 | 247 | 8.0 | 17.7 | 0.00 | 0.97 | 0.97 | 95 | 1013.3 |
| 20260507034526 | 3 | 264 | 8.0 | 22.5 | 0.00 | 0.97 | 0.97 | 97 | 1013.2 |
| 20260507033025 | 4 | 261 | 9.7 | 17.7 | 0.00 | 0.97 | 0.97 | 98 | 1013.0 |
| 20260507031521 | 4 | 246 | 8.0 | 20.9 | 0.00 | 0.97 | 0.97 | 98 | 1012.9 |
| 20260507030019 | 5 | 266 | 9.7 | 24.1 | 0.00 | 0.97 | 0.97 | 98 | 1013.0 |
| 20260507024516 | 5 | 250 | 8.0 | 16.1 | 0.00 | 0.97 | 0.97 | 99 | 1012.9 |
| 20260507023018 | 5 | 251 | 6.4 | 16.1 | 0.00 | 0.97 | 0.97 | 99 | 1013.2 |
| 20260507021523 | 5 | 246 | 1.6 | 4.8 | 0.00 | 0.97 | 0.97 | 99 | 1013.3 |
| 20260507020018 | 5 | 264 | 1.6 | 3.2 | 0.00 | 0.97 | 0.97 | 99 | 1012.9 |
| 20260507014518 | 5 | 264 | 0.0 | 3.2 | 0.00 | 0.97 | 0.97 | 99 | 1013.2 |
| 20260507013022 | 5 | 266 | 0.0 | 4.8 | 0.00 | 0.97 | 0.97 | 99 | 1013.1 |
| 20260507011522 | 5 | 266 | 0.0 | 4.8 | 0.00 | 0.97 | 0.97 | 99 | 1013.0 |
| 20260507010024 | 5 | 266 | 0.0 | 1.6 | 0.00 | 0.97 | 0.97 | 99 | 1012.8 |
| 20260507004517 | 5 | 266 | 0.0 | 4.8 | 0.00 | 0.97 | 0.97 | 99 | 1012.6 |
| 20260507003006 | 5 | 266 | 1.6 | 3.2 | 0.00 | 0.97 | 0.97 | 99 | 1012.5 |
| 20260507001506 | 5 | 266 | 0.0 | 3.2 | 0.00 | 0.97 | 0.97 | 99 | 1012.3 |
| 20260507000007 | 5 | 266 | 0.0 | 4.8 | 0.00 | 0.97 | 0.97 | 99 | 1012.0 |
| 20260506234504 | 5 | 265 | 1.6 | 4.8 | 0.00 | 0.97 | 0.97 | 99 | 1012.0 |
| 20260506233003 | 5 | 266 | 0.0 | 9.7 | 0.00 | 0.97 | 0.97 | 99 | 1011.8 |
| 20260506231505 | 5 | 266 | 1.6 | 6.4 | 0.00 | 0.97 | 0.97 | 99 | 1011.9 |
| 20260506230002 | 5 | 266 | 1.6 | 6.4 | 0.00 | 0.97 | 0.97 | 99 | 1011.8 |
| 20260506224601 | 5 | 250 | 0.0 | 6.4 | 0.00 | 0.97 | 0.97 | 99 | 1011.5 |
| 20260506223003 | 5 | 250 | 3.2 | 9.7 | 0.00 | 0.97 | 0.97 | 99 | 1011.5 |
| 20260506221504 | 5 | 268 | 3.2 | 12.9 | 0.00 | 0.97 | 0.97 | 99 | 1011.3 |
| 20260506220002 | 5 | 287 | 3.2 | 14.5 | 0.00 | 0.97 | 0.97 | 99 | 1011.1 |
| 20260506214601 | 5 | 249 | 1.6 | 14.5 | 0.00 | 1.09 | 0.97 | 98 | 1010.9 |
| 20260506213102 | 5 | 286 | 4.8 | 16.1 | 0.00 | 1.09 | 0.97 | 99 | 1010.5 |
| 20260506211559 | 5 | 270 | 4.8 | 17.7 | 0.00 | 1.09 | 0.97 | 99 | 1010.5 |
| 20260506210058 | 5 | 274 | 4.8 | 16.1 | 0.00 | 1.09 | 0.97 | 99 | 1010.5 |
| 20260506204558 | 5 | 270 | 3.2 | 14.5 | 0.00 | 1.09 | 0.97 | 99 | 1010.3 |
| 20260506203053 | 5 | 264 | 3.2 | 17.7 | 0.00 | 1.09 | 0.97 | 99 | 1010.2 |
| 20260506201551 | 5 | 266 | 4.8 | 16.1 | 0.00 | 1.09 | 0.97 | 99 | 1009.8 |
| 20260506200051 | 5 | 282 | 6.4 | 24.1 | 0.00 | 1.09 | 0.97 | 98 | 1009.7 |
| 20260506194547 | 6 | 203 | 4.8 | 16.1 | 0.00 | 1.09 | 0.97 | 98 | 1009.5 |
| 20260506193051 | 6 | 281 | 6.4 | 19.3 | 0.03 | 1.09 | 0.97 | 99 | 1009.1 |
| 20260506191545 | 5 | 324 | 6.4 | 19.3 | 0.03 | 1.09 | 0.97 | 99 | 1009.0 |
| 20260506190043 | 5 | 271 | 3.2 | 16.1 | 0.03 | 1.09 | 0.97 | 98 | 1009.0 |
| 20260506184541 | 5 | 264 | 4.8 | 17.7 | 0.05 | 1.19 | 0.97 | 98 | 1008.8 |
| 20260506183040 | 5 | 328 | 4.8 | 24.1 | 0.05 | 1.19 | 0.97 | 98 | 1008.8 |
| 20260506181550 | 6 | 270 | 4.8 | 12.9 | 0.05 | 1.17 | 0.94 | 98 | 1008.6 |
| 20260506180035 | 6 | 12 | 1.6 | 14.5 | 0.05 | 1.17 | 0.94 | 98 | 1008.3 |
| 20260506174536 | 6 | 325 | 3.2 | 8.0 | 0.03 | 1.14 | 0.91 | 98 | 1008.0 |
| 20260506173102 | 5 | 329 | 1.6 | 16.1 | 0.05 | 1.14 | 0.91 | 98 | 1007.8 |
| 20260506171541 | 5 | 318 | 8.0 | 19.3 | 0.05 | 1.12 | 0.89 | 98 | 1007.7 |
| 20260506170048 | 6 | 266 | 3.2 | 19.3 | 0.08 | 1.12 | 0.89 | 98 | 1007.6 |
| 20260506164532 | 6 | 285 | 3.2 | 12.9 | 0.10 | 1.12 | 0.89 | 98 | 1007.5 |
| 20260506163028 | 6 | 259 | 3.2 | 14.5 | 0.08 | 1.09 | 0.86 | 98 | 1007.6 |
| 20260506161521 | 6 | 286 | 6.4 | 14.5 | 0.08 | 1.07 | 0.84 | 97 | 1007.3 |
| 20260506160018 | 6 | 281 | 4.8 | 12.9 | 0.10 | 1.04 | 0.81 | 97 | 1007.2 |
| 20260506154516 | 7 | 273 | 1.6 | 6.4 | 0.13 | 1.04 | 0.81 | 97 | 1006.8 |
| 20260506153021 | 8 | 324 | 1.6 | 4.8 | 0.10 | 1.02 | 0.79 | 97 | 1006.8 |
| 20260506151513 | 9 | 254 | 1.6 | 4.8 | 0.08 | 0.99 | 0.76 | 97 | 1006.8 |
| 20260506150016 | 10 | 254 | 3.2 | 9.7 | 0.03 | 0.94 | 0.71 | 97 | 1006.8 |
| 20260506144514 | 11 | 228 | 3.2 | 12.9 | 0.00 | 0.91 | 0.69 | 98 | 1006.8 |
| 20260506143016 | 11 | 168 | 4.8 | 20.9 | 0.03 | 0.91 | 0.69 | 98 | 1006.4 |
| 20260506141507 | 11 | 162 | 8.0 | 17.7 | 0.05 | 0.91 | 0.69 | 98 | 1006.1 |
| 20260506140015 | 11 | 172 | 3.2 | 17.7 | 0.08 | 0.91 | 0.69 | 98 | 1006.0 |
| 20260506134506 | 11 | 166 | 6.4 | 24.1 | 0.13 | 0.91 | 0.69 | 98 | 1006.5 |
| 20260506133012 | 11 | 160 | 6.4 | 19.3 | 0.18 | 0.89 | 0.66 | 98 | 1006.4 |
| 20260506131511 | 11 | 174 | 4.8 | 22.5 | 0.20 | 0.86 | 0.64 | 97 | 1006.5 |
| 20260506130011 | 11 | 157 | 6.4 | 22.5 | 0.23 | 0.84 | 0.61 | 97 | 1006.4 |
| 20260506124509 | 11 | 197 | 9.7 | 19.3 | 0.20 | 0.79 | 0.56 | 96 | 1006.8 |
| 20260506123010 | 11 | 183 | 6.4 | 16.1 | 0.18 | 0.71 | 0.51 | 96 | 1007.0 |
| 20260506121508 | 11 | 191 | 6.4 | 16.1 | 0.13 | 0.66 | 0.43 | 96 | 1007.1 |
| 20260506120008 | 11 | 199 | 8.0 | 19.3 | 0.13 | 0.64 | 0.41 | 96 | 1006.7 |
| 20260506114508 | 11 | 207 | 11.3 | 25.7 | 0.10 | 0.58 | 0.36 | 95 | 1006.5 |
| 20260506113003 | 11 | 158 | 8.0 | 17.7 | 0.13 | 0.56 | 0.33 | 95 | 1006.4 |
| 20260506111504 | 11 | 170 | 9.7 | 27.4 | 0.13 | 0.53 | 0.30 | 95 | 1006.5 |